Location: Jackson
(42.2460°N, 84.4010°W)
Time: 17:50:42
(UTC-05:00)

BlueWalker 3 - Pass Details

Date: 27 January 2026
Orbit: 450 x 461 km, 53.2° (Epoch: 14 February)

Event Time Altitude Azimuth Distance (km) Brightness Sun altitude
Rises 19:54:58 0° 297° (WNW) 2,457 6.4 -23.9°
Reaches altitude 10° 19:57:56 10° 323° (NW) 1,584 4.9 -24.5°
Enters shadow 19:58:59 13° 340° (NNW) 1,407 4.4 -24.7°
